Tracking 31030 objects as of 16-Jul-2025
HD Live streaming from Space Station
objects crossing your sky now

COSMOS 1275 DEB *

Track COSMOS 1275 DEB * now!
10-day predictions


NORAD ID: 18565
Int'l Code: 1981-053LY
Perigee: 944.2 km
Apogee: 1,128.8 km
Inclination: 82.5 °
Period: 105.7 minutes
Semi major axis: 7407 km
RCS: 0.0174 m2 (small)
Launch date: June 4, 1981
Source: Commonwealth of Independent States (former USSR) (CIS)
Launch site: PLESETSK MISSILE AND SPACE COMPLEX (PKMTR)

Note: This is SATELLITE DEBRIS
Your satellite tracking list
Your tracking list is empty




NASA's NSSDC Master Catalog

Two Line Element Set (TLE):
1 18565U 85094U   25195.97805090  .00003712  00000-0  45795-2 0  9996
2 18565  82.4819  32.5099 0124623 319.5230 195.6452 13.61752048645192
Source of the keplerian elements: AFSPC